Weather History for Spirit of St Louis, MO

Change the Weather History Date:

Wednesday, January 23, 2013

  Actual Average Record
Temperature  
Mean Temperature 26 °F -  
Max Temperature 43 °F 37 °F - (-1)
Min Temperature 10 °F 18 °F - (-1)
Degree Days  
Heating Degree Days 38    
Moisture  
Dew Point 14 °F    
Average Humidity 64    
Maximum Humidity 84    
Minimum Humidity 38    
Precipitation  
Precipitation 0.00 in - - ()
Sea Level Pressure  
Sea Level Pressure 30.29 in    
Wind  
Wind Speed 2 mph (WNW)    
Max Wind Speed 13 mph    
Max Gust Speed 17 mph    
Visibility 10 miles    
Events      
Averages and records for this station are not official NWS values.
T = Trace of Precipitation, MM = Missing Value Source: NWS Daily Summary

Daily Weather History Graph

Daily Weather History Graph

Search for Another Location

Airport:

Trip Planner

Search our weather history database for the weather conditions in past years. The results will help you decide how hot, cold, wet, or windy it might be!

Date:

Astronomy

Jan. 23, 2013 Rise Set
Actual Time 7:14 AM CST 5:14 PM CST
Civil Twilight 6:46 AM CST 5:43 PM CST
Nautical Twilight 6:14 AM CST 6:15 PM CST
Astronomical Twilight 5:42 AM CST 6:46 PM CST
Moon 2:25 PM CST 4:26 AM CST
Length of Visible Light 10h 56m
Length of Day
9h 59m
Waxing Gibbous, 89% of the Moon is Illuminated
Jan 23
Waxing Gibbous
Jan 26
Full
Feb 3
Last Quarter
Feb 10
New
Feb 17
First Quarter

Hourly Weather History & Observations

Time (CST) Temp. Windchill Dew Point Humidity Pressure Visibility Wind Dir Wind Speed Gust Speed Precip Events Conditions
12:54 AM 12.9 °F - 9.0 °F 84% 30.40 in 10.0 mi Calm Calm - N/A   Clear
1:54 AM 12.0 °F - 8.1 °F 84% 30.40 in 10.0 mi Calm Calm - N/A   Clear
2:54 AM 12.9 °F - 8.1 °F 81% 30.39 in 10.0 mi Calm Calm - N/A   Clear
3:54 AM 12.0 °F - 8.1 °F 84% 30.35 in 10.0 mi Calm Calm - N/A   Clear
4:54 AM 12.9 °F - 8.1 °F 81% 30.35 in 10.0 mi Calm Calm - N/A   Clear
5:54 AM 10.9 °F - 6.1 °F 81% 30.34 in 10.0 mi Calm Calm - N/A   Clear
6:54 AM 12.0 °F - 7.0 °F 80% 30.34 in 9.0 mi Calm Calm - N/A   Clear
7:54 AM 12.9 °F - 9.0 °F 84% 30.34 in 9.0 mi Calm Calm - N/A   Clear
8:54 AM 19.0 °F - 12.0 °F 74% 30.32 in 10.0 mi Calm Calm - N/A   Clear
9:54 AM 27.0 °F 20.5 °F 15.1 °F 61% 30.31 in 10.0 mi West 5.8 mph - N/A   Clear
10:54 AM 30.0 °F - 16.0 °F 56% 30.29 in 10.0 mi Calm Calm - N/A   Clear
11:54 AM 35.1 °F 30.1 °F 18.0 °F 50% 30.25 in 10.0 mi WNW 5.8 mph - N/A   Partly Cloudy
12:54 PM 37.0 °F 32.4 °F 18.0 °F 46% 30.21 in 10.0 mi WSW 5.8 mph - N/A   Scattered Clouds
1:54 PM 39.9 °F 34.5 °F 19.0 °F 43% 30.19 in 10.0 mi West 8.1 mph - N/A   Clear
2:54 PM 43.0 °F 36.4 °F 19.0 °F 38% 30.18 in 10.0 mi West 12.7 mph - N/A   Clear
3:54 PM 42.8 °F 37.5 °F 19.4 °F 39% 30.14 in 10.0 mi West 9.2 mph - N/A   Clear
4:54 PM 39.0 °F 35.7 °F 19.9 °F 46% 30.19 in 10.0 mi West 4.6 mph - N/A   Scattered Clouds
5:54 PM 30.9 °F - 19.9 °F 64% 30.21 in 10.0 mi Calm Calm - N/A   Scattered Clouds
6:54 PM 28.0 °F 24.2 °F 19.0 °F 69% 30.25 in 10.0 mi West 3.5 mph - N/A   Clear
7:54 PM 34.0 °F 28.8 °F 19.9 °F 56% 30.27 in 10.0 mi WNW 5.8 mph - N/A   Clear
8:54 PM 30.9 °F 24.3 °F 19.9 °F 64% 30.30 in 10.0 mi NNW 6.9 mph - N/A   Clear
9:54 PM 32.0 °F 23.0 °F 17.1 °F 54% 30.32 in 10.0 mi NNW 11.5 mph - N/A   Clear
10:54 PM 30.0 °F 21.1 °F 12.9 °F 49% 30.35 in 10.0 mi NNW 10.4 mph 17.3 mph N/A   Clear
11:54 PM 28.0 °F 20.8 °F 14.0 °F 56% 30.38 in 10.0 mi North 6.9 mph - N/A   Clear